Date String (YYYY-MM-DD hh:mm:ss) UTC,Instrument flags,Ambient pressure (hPa),Sample flow (lpm),Bypass flow (lpm),Sample temperature (°C),Ambient temperature (°C),ASC tube jacket temperature (°C),LED temperature (°C),Box temperature (°C),Sample RH (%),Span deviation,Mass concentration (μg/m³),Mass concentration (μg/m³),Mass concentration (μg/m³)
DateTimeUTC,F1_M11,P_M11,Q1_M11,Q2_M11,T1_M11,T2_M11,T3_M11,T4_M11,T5_M11,U1_M11,ZSPAN_M11,X0_M11,X2_M11,X1_M11
2022-08-04 17:00:00,,0829.2,5.01,0.00,29.8,27.9,00.0,38.1,31.4,33.5,0000.1,0019.92,0010.15,0008.67
2022-08-04 17:01:00,,0829.2,5.00,0.00,29.9,28.0,00.0,38.2,31.4,33.5,0000.7,0018.76,0010.13,0008.67
2022-08-04 17:02:00,,0829.2,4.99,0.00,29.9,27.9,00.0,38.2,31.4,33.8,0000.7,0017.89,0010.09,0008.66
2022-08-04 17:03:00,,0829.2,5.02,0.00,29.9,27.4,00.0,38.2,31.3,33.8,0001.1,0017.96,0010.09,0008.64
2022-08-04 17:04:00,,0829.2,4.99,0.00,29.9,27.2,00.0,38.2,31.3,33.9,0001.4,0018.41,0010.08,0008.63
2022-08-04 17:05:00,,0829.2,5.00,0.00,29.8,27.3,00.0,38.2,31.2,34.2,0001.5,0018.28,0010.06,0008.62
2022-08-04 17:06:00,,0829.2,4.99,0.00,29.7,27.4,00.0,38.2,31.1,34.8,0001.4,0018.84,0010.11,0008.64
2022-08-04 17:07:00,,0829.2,4.99,0.00,29.8,27.6,00.0,38.3,31.2,34.9,0001.2,0019.49,0010.09,0008.66
2022-08-04 17:08:00,,0829.2,5.01,0.00,29.8,27.7,00.0,38.3,31.3,34.5,0001.2,0019.80,0010.12,0008.68
2022-08-04 17:09:00,,0829.2,5.00,0.00,29.9,27.9,00.0,38.3,31.4,34.5,0001.3,0019.78,0010.16,0008.71
2022-08-04 17:10:00,,0829.2,5.01,0.00,29.9,28.1,00.0,38.3,31.5,34.4,0001.5,0020.78,0010.16,0008.72
2022-08-04 17:11:00,,0829.1,4.99,0.00,30.0,28.0,00.0,38.3,31.5,34.4,0002.2,0020.18,0010.18,0008.73
2022-08-04 17:12:00,,0829.1,5.00,0.00,29.9,27.5,00.0,38.3,31.4,34.5,0002.0,0020.11,0010.19,0008.74
2022-08-04 17:13:00,,0829.1,5.00,0.00,29.9,27.3,00.0,38.3,31.3,33.9,0002.2,0019.95,0010.14,0008.73
2022-08-04 17:14:00,,0829.1,5.01,0.00,29.8,27.3,00.0,38.3,31.2,34.2,0002.4,0020.28,0010.13,0008.74
2022-08-04 17:15:00,,0829.0,4.99,0.00,29.8,27.4,00.0,38.3,31.1,34.1,0002.4,0020.41,0010.16,0008.74
2022-08-04 17:16:00,,0829.1,5.01,0.00,29.8,27.6,00.0,38.3,31.2,33.9,0002.4,0019.81,0010.14,0008.75
2022-08-04 17:17:00,,0829.0,5.00,0.00,29.8,27.7,00.0,38.3,31.3,33.4,0002.6,0019.19,0010.14,0008.73
2022-08-04 17:18:00,,0829.0,4.99,0.00,29.8,27.9,00.0,38.3,31.4,32.7,0002.9,0018.44,0010.13,0008.69
2022-08-04 17:19:00,,0829.0,5.00,0.00,29.8,28.1,00.0,38.4,31.4,33.0,0002.8,0017.85,0010.12,0008.67
2022-08-04 17:20:00,,0829.0,5.00,0.00,29.8,28.0,00.0,38.4,31.5,31.4,0002.6,0017.85,0010.04,0008.63
2022-08-04 17:21:00,,0829.0,5.01,0.00,29.8,27.6,00.0,38.3,31.3,31.2,0002.3,0017.20,0010.04,0008.59
2022-08-04 17:22:00,,0829.0,5.00,0.00,29.7,27.3,00.0,38.3,31.3,31.5,0001.9,0017.73,0010.08,0008.54
2022-08-04 17:23:00,,0829.0,5.00,0.00,29.7,27.3,00.0,38.3,31.2,31.2,0001.8,0017.57,0010.12,0008.51
2022-08-04 17:24:00,,0828.9,5.00,0.00,29.6,27.4,00.0,38.3,31.2,32.6,0001.8,0017.53,0010.14,0008.49
2022-08-04 17:25:00,,0828.9,4.99,0.00,29.6,27.6,00.0,38.3,31.2,31.9,0001.8,0017.27,0010.13,0008.47
2022-08-04 17:26:00,,0828.8,5.00,0.00,29.6,27.7,00.0,38.3,31.3,31.3,0002.1,0017.44,0010.06,0008.44
2022-08-04 17:27:00,,0828.9,5.00,0.00,29.6,27.9,00.0,38.3,31.3,28.6,0002.1,0017.29,0009.96,0008.36
2022-08-04 17:28:00,,0828.9,5.00,0.00,29.7,28.0,00.0,38.3,31.4,30.1,0002.3,0017.05,0009.89,0008.29
2022-08-04 17:29:00,,0828.8,5.00,0.00,29.7,27.7,00.0,38.3,31.3,33.3,0002.7,0016.86,0009.88,0008.28
2022-08-04 17:30:00,,0828.8,4.99,0.00,29.6,27.2,00.0,38.3,31.2,34.6,0002.7,0018.09,0009.94,0008.31
2022-08-04 17:31:00,,0828.8,5.00,0.00,29.6,27.1,00.0,38.3,31.2,34.8,0002.9,0018.73,0010.01,0008.34
2022-08-04 17:32:00,,0828.9,5.01,0.00,29.7,27.2,00.0,38.2,31.2,33.4,0003.1,0019.08,0010.03,0008.37
2022-08-04 17:33:00,,0829.0,4.99,0.00,29.7,27.4,00.0,38.2,31.2,32.8,0003.2,0018.55,0009.99,0008.41
2022-08-04 17:34:00,,0828.9,4.99,0.00,29.7,27.5,00.0,38.2,31.2,32.4,0003.4,0018.28,0009.93,0008.44
2022-08-04 17:35:00,,0828.9,5.01,0.00,29.7,27.7,00.0,38.2,31.3,31.7,0003.1,0018.72,0009.96,0008.43
2022-08-04 17:36:00,,0828.8,5.00,0.00,29.8,27.9,00.0,38.3,31.4,33.8,0003.1,0018.94,0009.98,0008.43
2022-08-04 17:37:00,,0828.9,4.99,0.00,29.8,28.1,00.0,38.3,31.4,32.8,0003.0,0018.75,0010.01,0008.45
2022-08-04 17:38:00,,0828.9,5.01,0.00,29.8,27.8,00.0,38.3,31.4,31.7,0002.8,0020.65,0010.08,0008.47
2022-08-04 17:39:00,,0828.9,5.00,0.00,29.8,27.3,00.0,38.3,31.2,32.2,0002.9,0021.66,0010.17,0008.52
2022-08-04 17:40:00,,0828.8,5.00,0.00,29.7,27.2,00.0,38.3,31.2,33.3,0002.8,0021.77,0010.21,0008.55
2022-08-04 17:41:00,,0828.8,4.99,0.00,29.7,27.2,00.0,38.3,31.1,31.9,0003.0,0020.69,0010.18,0008.51
2022-08-04 17:42:00,,0828.8,5.01,0.00,29.6,27.4,00.0,38.2,31.1,30.6,0002.9,0020.75,0010.15,0008.46
2022-08-04 17:43:00,,0828.8,4.99,0.00,29.6,27.6,00.0,38.3,31.2,31.2,0003.0,0020.95,0010.15,0008.41
2022-08-04 17:44:00,,0828.9,5.01,0.00,29.6,27.7,00.0,38.3,31.3,33.1,0002.9,0021.74,0010.15,0008.36
2022-08-04 17:45:00,,0828.9,5.00,0.00,29.6,27.9,00.0,38.3,31.3,32.7,0002.8,0022.74,0010.14,0008.33
2022-08-04 17:46:00,,0828.8,5.00,0.00,29.7,28.1,00.0,38.3,31.4,30.9,0002.7,0023.69,0010.08,0008.30
2022-08-04 17:47:00,,0828.9,4.99,0.00,29.7,27.8,00.0,38.3,31.3,28.8,0002.9,0024.42,0010.03,0008.24
2022-08-04 17:48:00,,0828.8,5.01,0.00,29.6,27.3,00.0,38.3,31.2,29.2,0002.6,0023.93,0009.95,0008.18
2022-08-04 17:49:00,,0828.8,4.99,0.00,29.6,27.1,00.0,38.2,31.2,31.2,0002.7,0022.37,0009.97,0008.17
2022-08-04 17:50:00,,0828.9,5.01,0.00,29.5,27.2,00.0,38.2,31.1,31.0,0002.3,0022.34,0009.93,0008.16
2022-08-04 17:51:00,,0828.8,4.99,0.00,29.5,27.3,00.0,38.2,31.1,29.4,0002.2,0022.21,0009.86,0008.12
2022-08-04 17:52:00,,0828.8,5.01,0.00,29.5,27.5,00.0,38.2,31.2,27.6,0002.0,0022.51,0009.84,0008.06
2022-08-04 17:53:00,,0828.8,4.99,0.00,29.5,27.7,00.0,38.2,31.3,28.6,0002.4,0022.30,0009.82,0008.03
2022-08-04 17:54:00,,0828.8,5.00,0.00,29.5,27.9,00.0,38.2,31.3,28.9,0002.4,0022.28,0009.77,0008.01
2022-08-04 17:55:00,,0828.8,5.01,0.00,29.6,28.0,00.0,38.2,31.4,29.6,0002.4,0021.38,0009.76,0007.99
2022-08-04 17:56:00,,0828.9,5.00,0.00,29.6,27.5,00.0,38.2,31.2,27.4,0002.7,0020.59,0009.72,0007.94
2022-08-04 17:57:00,,0828.8,5.01,0.00,29.5,27.2,00.0,38.2,31.1,26.9,0002.6,0019.82,0009.76,0007.88
2022-08-04 17:58:00,,0828.9,5.01,0.00,29.5,27.2,00.0,38.2,31.1,28.7,0002.1,0019.33,0009.74,0007.87
2022-08-04 17:59:00,,0828.8,4.99,0.00,29.4,27.3,00.0,38.2,31.1,27.7,0002.2,0019.35,0009.72,0007.83
